[[{"header":{"parameterUnit":"m.s-1","parameterCategory":1,"la1":30.2992,"la2":30.254,"lo1":-89.0895,"lo2":-89.0443,"dy":0.0025,"dx":0.0025,"nx":19,"ny":19,"refTime":"2026-05-01T09:00:00:Z","depth":0,"parameterNumber":2,"parameterNumberName":"U-component_of_WINDS"},"data":[0,0,0,-1.0118,-1.0123,-1.0329,-1.033,-1.0612,-1.0615,0,0,0,0,0,0,0,0,0,0,0,-1.0066,-1.0068,-1.0118,-1.0123,-1.0329,-1.033,-1.0612,-1.0615,0,0,0,0,0,0,0,0,0,0,0,-1.0065,-1.0067,-1.007,-1.0124,-1.0329,-1.033,-1.0611,-1.045,0,0,0,0,0,0,0,0,0,0,-1.0247,-1.0205,-1.0067,-1.007,-1.0126,-1.0329,-1.033,-1.0442,-1.046,-1.0526,0,-1.0584,0,-1.0604,-1.0634,-1.0636,0,0,0,-1.0118,-1.019,-1.0238,-1.007,-1.0127,-1.0329,-1.0235,-1.0451,-1.0472,-1.055,-1.0588,-1.0598,-1.0608,-1.0636,-1.0638,-1.1033,-1.1035,0,0,-1.0107,-1.0108,-1.0224,-1.0252,-1.0218,-1.0228,-1.0241,-1.0464,-1.0506,-1.0589,-1.0604,-1.0613,-1.0638,-1.0641,-1.1031,-1.1033,0,0,0,-1.0078,-1.01,-1.0142,-1.024,-1.0276,-1.0234,-1.0249,-1.0496,-1.051,-1.0607,-1.0616,-1.064,-1.0644,-1.1028,-1.1032,-1.1139,0,0,0,-1.007,-1.0083,-1.0137,-1.014,-1.0272,-1.0388,-1.0278,-1.0494,-1.0519,-1.0615,-1.064,-1.0647,-1.1026,-1.103,-1.1131,-1.1192,0,0,0,-1.005,-1.0081,-1.0113,-1.014,-1.0228,-1.0385,-1.0411,-1.05,-1.0526,-1.0636,-1.0647,-1.1024,-1.1029,-1.1124,-1.118,-1.1299,0,0,0,-1.0028,-1.0204,-1.0115,-1.0315,-1.0227,-1.0447,-1.0409,-1.0574,-1.0681,-1.0642,-1.1026,-1.1031,-1.1122,-1.1172,-1.1292,-1.1403,-1.1448,0,0,-1.0252,-1.0231,-1.0349,-1.0275,-1.0513,-1.0416,-1.067,-1.0767,-1.0777,-1.0948,-1.0957,-1.1134,-1.1179,-1.1298,-1.1693,-1.1729,0,0,0,-1.0421,-1.0507,-1.0569,-1.067,-1.0747,-1.0821,-1.0878,-1.0914,-1.1059,-1.0864,-1.1207,-1.1233,-1.1303,-1.1357,-1.1387,-1.145,-1.1055,-1.1054,-1.1054,-1.0743,-1.0744,-1.0942,-1.0969,-1.1068,-1.1126,-1.1208,-1.1267,-1.124,-1.1321,-1.1374,-1.1613,-1.1675,-1.1698,-1.1763,-1.1428,-1.1429,-1.1429,-1.1429,-1.1075,-1.1198,-1.1157,-1.1335,-1.1337,-1.1486,-1.155,-1.1526,-1.1668,-1.1573,-1.1634,-1.1535,-1.1737,-1.1795,-1.1437,-1.1436,-1.1435,-1.1434,-1.1434,-1.129,-1.135,-1.1389,-1.1537,-1.1652,-1.1673,-1.1812,-1.1808,-1.1805,-1.1865,-1.1924,-1.1922,-1.1924,-1.1892,-1.1893,-1.1894,-1.1895,-1.1895,-1.1896,-1.1499,-1.154,-1.1657,-1.1754,-1.182,-1.1907,-1.1967,-1.2033,-1.2105,-1.2092,-1.2092,-1.2061,-1.1754,-1.1681,-1.1909,-1.1907,-1.1905,-1.1904,-1.1903,-1.1844,-1.1765,-1.1945,-1.2012,-1.2128,-1.2244,-1.2235,-1.237,-1.2424,-1.2493,-1.2448,-1.222,-1.22,-1.2176,-1.2116,-1.2443,-1.2443,-1.2443,-1.2443,-1.203,-1.2017,-1.2202,-1.2309,-1.2413,-1.2424,-1.2632,-1.2681,-1.272,-1.2755,-1.2705,-1.2623,-1.2598,-1.2593,-1.256,-1.2504,-1.2922,-1.2923,-1.2923,-1.2244,-1.2242,-1.2419,-1.2454,-1.2545,-1.2624,-1.2821,-1.2948,-1.2975,-1.2943,-1.2783,-1.2763,-1.2629,-1.2584,-1.2553,-1.2501,-1.2398,0,0]},{"header":{"parameterUnit":"m.s-1","parameterCategory":1,"la1":30.2992,"la2":30.254,"lo1":-89.0895,"lo2":-89.0443,"dy":0.0025,"dx":0.0025,"nx":19,"ny":19,"refTime":"2026-05-01T09:00:00:Z","depth":0,"parameterNumber":3,"parameterNumberName":"V-component_of_WINDS"},"data":[0,0,0,-3.714,-3.7143,-3.7299,-3.73,-3.7508,-3.751,0,0,0,0,0,0,0,0,0,0,0,-3.7101,-3.7103,-3.7139,-3.7143,-3.7299,-3.73,-3.7508,-3.751,0,0,0,0,0,0,0,0,0,0,0,-3.71,-3.7102,-3.7104,-3.7144,-3.7299,-3.73,-3.7508,-3.7386,0,0,0,0,0,0,0,0,0,0,-3.7233,-3.7205,-3.7102,-3.7104,-3.7145,-3.7299,-3.73,-3.738,-3.7394,-3.7442,0,-3.7489,0,-3.7503,-3.7525,-3.7526,0,0,0,-3.7138,-3.7194,-3.7229,-3.7105,-3.7146,-3.7298,-3.7227,-3.7388,-3.7403,-3.7461,-3.7492,-3.7499,-3.7507,-3.7526,-3.7528,-3.783,-3.7831,0,0,-3.7129,-3.7133,-3.7219,-3.724,-3.7218,-3.7222,-3.7232,-3.7397,-3.7431,-3.7493,-3.7504,-3.751,-3.7528,-3.753,-3.7828,-3.783,0,0,0,-3.7108,-3.7127,-3.7158,-3.7231,-3.7259,-3.7227,-3.7238,-3.7424,-3.7433,-3.7506,-3.7512,-3.7529,-3.7532,-3.7826,-3.7829,-3.7917,0,0,0,-3.7103,-3.7115,-3.7155,-3.7159,-3.7256,-3.7344,-3.7261,-3.7422,-3.744,-3.7511,-3.7529,-3.7534,-3.7824,-3.7828,-3.791,-3.7958,0,0,0,-3.7088,-3.7113,-3.7138,-3.7158,-3.7226,-3.7341,-3.736,-3.7426,-3.7445,-3.7526,-3.7535,-3.7823,-3.7827,-3.7905,-3.7948,-3.8038,0,0,0,-3.7074,-3.7215,-3.714,-3.7299,-3.7225,-3.7394,-3.7359,-3.7485,-3.7565,-3.753,-3.7825,-3.7829,-3.7903,-3.7943,-3.8032,-3.8115,-3.815,0,0,-3.7254,-3.7236,-3.733,-3.7267,-3.7451,-3.737,-3.7566,-3.7636,-3.7639,-3.7765,-3.7773,-3.7912,-3.7948,-3.8037,-3.8343,-3.8371,0,0,0,-3.7388,-3.7455,-3.7503,-3.758,-3.7636,-3.7688,-3.7726,-3.7752,-3.7859,-3.7705,-3.7969,-3.799,-3.8042,-3.8081,-3.8105,-3.8149,-3.7847,-3.7846,-3.7846,-3.7649,-3.7646,-3.78,-3.7815,-3.7889,-3.7927,-3.7987,-3.8027,-3.8002,-3.8064,-3.8102,-3.8288,-3.8335,-3.8352,-3.8399,-3.8145,-3.8145,-3.8145,-3.8146,-3.7913,-3.8007,-3.7969,-3.8105,-3.81,-3.8213,-3.8253,-3.8231,-3.8335,-3.826,-3.8305,-3.8224,-3.8383,-3.8423,-3.8152,-3.8151,-3.815,-3.815,-3.8149,-3.8085,-3.8129,-3.8157,-3.8266,-3.835,-3.8359,-3.8461,-3.8452,-3.8444,-3.849,-3.8528,-3.8527,-3.8525,-3.8508,-3.8509,-3.851,-3.851,-3.8511,-3.8511,-3.8252,-3.8281,-3.8368,-3.8438,-3.8485,-3.8545,-3.8582,-3.8628,-3.8676,-3.8662,-3.8662,-3.863,-3.8399,-3.8341,-3.8521,-3.8519,-3.8518,-3.8517,-3.8517,-3.8523,-3.8459,-3.8594,-3.8641,-3.8721,-3.8804,-3.8791,-3.8884,-3.892,-3.897,-3.8928,-3.8758,-3.874,-3.8721,-3.8673,-3.8928,-3.8928,-3.8928,-3.8928,-3.8668,-3.8657,-3.8792,-3.8868,-3.894,-3.8941,-3.9091,-3.912,-3.914,-3.9162,-3.9123,-3.9058,-3.9039,-3.9032,-3.9007,-3.8962,-3.9285,-3.9285,-3.9286,-3.8834,-3.883,-3.8961,-3.8979,-3.904,-3.9092,-3.9233,-3.932,-3.9329,-3.93,-3.9178,-3.9163,-3.9059,-3.9025,-3.8996,-3.8956,-3.8874,0,0]}]]